Location: Wanzleben
(52.0609°N, 11.4408°E)
Time: 01:42:56
(UTC+00:00)

Cosmos 1809 Rocket - Pass Details

Date: 18 September 2020
Orbit: 942 x 963 km, 82.5° (Epoch: 23 October)

Event Time Altitude Azimuth Distance (km) Brightness Sun altitude
Rises 21:00:16 0° 349° (NNW) 3,659 8.4 -30.1°
Reaches altitude 10° 21:02:46 10° 350° (N) 2,710 7.6 -30.4°
Enters shadow 21:08:29 76° 6° (N) 996 4.5 -30.9°
